Погода в Заре

Россия / Республика Саха (Якутия)     62˚06′18″N   114˚11′19″E
темп.,
°C
ветер,
м/с
пор.,
м/с
влажн.,
%
обл.,
%
осадки,
мм/ч
давл.,
гПа
погр.,
м
18 января, пн
пн1800:00−40˚зюз4796100 0.1 1034284
03:00−40˚зюз4896100 0.1 1032279
06:00−40˚зюз3796100 0.1 1031279
09:00−39˚зюз3597100 0.1 1029215
12:00−39˚юз2397100 0.1 1027156
15:00−37˚зюз1294100 0.1 1025179
18:00−39˚вюв1297100 0.0 102318
21:00−38˚вюв2297100 0.0 102223
19 января, вт
вт1900:00−37˚в249799 0.0 101993
03:00−38˚в369799 0.0 1018128
06:00−38˚в4897100 0.0 1017239
09:00−37˚в51096100 0.0 1015324
12:00−36˚всв61196100 0.0 1013341
15:00−36˚всв61196100 0.1 1011343
18:00−37˚всв61097100 0.3 1012356
21:00−38˚св4797100 0.6 1013305
20 января, ср
ср2000:00−39˚св3596100 0.1 1014247
03:00−40˚ссв3497100 0.2 1016208
06:00−41˚ссв2397100 0.1 1018181
09:00−42˚ссв2298100 0.1 102048
12:00−42˚с1297100 0.0 1021105
15:00−42˚ссз1296100 0.1 1022180
18:00−44˚сз1298100 0.0 102518
21:00−44˚сз1298100 0.0 102618
21 января, чт
чт2100:00−43˚зсз2298100 0.0 102855
03:00−42˚з2398100 0.1 102980
06:00−42˚з2597100 0.0 1031145
09:00−41˚з3597100 0.1 1032233
12:00−40˚з3695100 0.1 1033354
15:00−39˚з3694100 0.1 1034401
18:00−40˚зюз3697100 0.0 1034186
21:00−42˚зюз3498100 0.1 1035104
22 января, пт
пт2200:00−44˚з239893 0.0 103427
03:00−45˚зюз229884 0.0 103418
06:00−46˚зюз229871 0.0 103418
09:00−47˚зюз119973 0.0 103318
12:00−45˚зсз119661 0.0 103218
15:00−42˚св119657 0.0 103028
18:00−45˚всв129750 0.0 103018
21:00−45˚всв229750 0.0 103018